Weather History for Torrington, WY

Change the Weather History Date:

Thursday, December 27, 2012

  Actual Average Record
Temperature  
Mean Temperature 12 °F 27 °F  
Max Temperature 21 °F 40 °F 58 °F (2013)
Min Temperature 3 °F 14 °F 3 °F (2012)
Degree Days  
Heating Degree Days 53 38  
Month to date heating degree days 940 1019  
Since 1 July heating degree days 2283 2602  
Cooling Degree Days 0 0  
Month to date cooling degree days 0 0  
Year to date cooling degree days 1021 678  
Moisture  
Dew Point 7 °F    
Average Humidity 82    
Maximum Humidity 96    
Minimum Humidity 67    
Precipitation  
Precipitation T in 0.01 in 0.04 in (2007)
Month to date precipitation 0.07 0.33  
Year to date precipitation 7.07 14.17  
Sea Level Pressure  
Sea Level Pressure 29.88 in    
Wind  
Wind Speed 6 mph (NNE)    
Max Wind Speed 18 mph    
Max Gust Speed 26 mph    
Visibility 8 miles    
Events Snow    
T = Trace of Precipitation, MM = Missing Value Source: NWS Daily Summary

Daily Weather History Graph

Daily Weather History Graph

Search for Another Location

Airport:

Trip Planner

Search our weather history database for the weather conditions in past years. The results will help you decide how hot, cold, wet, or windy it might be!

Date:

Astronomy

Dec. 27, 2012 Rise Set
Actual Time 7:24 AM MST 4:32 PM MST
Civil Twilight 6:52 AM MST 5:03 PM MST
Nautical Twilight 6:17 AM MST 5:39 PM MST
Astronomical Twilight 5:43 AM MST 6:13 PM MST
Moon 4:17 PM MST (12/27) 6:36 AM MST (12/27)
Length of Visible Light 10h 11m
Length of Day
9h 07m
Full, 100% of the Moon is Illuminated
Dec 27
Full
Dec 28
Full
Jan 4
Last Quarter
Jan 11
New
Jan 18
First Quarter

Hourly Weather History & Observations

Time (MST) Temp. Windchill Dew Point Humidity Pressure Visibility Wind Dir Wind Speed Gust Speed Precip Events Conditions
12:53 AM 10.0 °F -3.7 °F 7.0 °F 87% 29.85 in 10.0 mi ESE 10.4 mph - N/A   Clear
1:04 AM 10.4 °F -2.4 °F 6.8 °F 85% 29.66 in 10.0 mi ESE 9.2 mph - N/A   Scattered Clouds
1:15 AM 10.4 °F -1.5 °F 6.8 °F 85% 29.66 in 10.0 mi ESE 8.1 mph - N/A   Mostly Cloudy
1:46 AM 8.6 °F -4.7 °F 5.0 °F 85% 29.66 in 10.0 mi East 9.2 mph - N/A   Scattered Clouds
1:53 AM 7.0 °F -5.7 °F 5.0 °F 92% 29.86 in 10.0 mi ENE 8.1 mph - N/A   Partly Cloudy
2:53 AM 5.0 °F -10.0 °F 1.9 °F 87% 29.86 in 10.0 mi ENE 10.4 mph - N/A   Clear
3:41 AM 5.0 °F -5.6 °F 1.4 °F 85% 29.67 in 10.0 mi NNE 5.8 mph - N/A   Mostly Cloudy
3:53 AM 5.0 °F -2.1 °F 3.0 °F 92% 29.87 in 10.0 mi North 3.5 mph - N/A   Overcast
4:53 AM 9.0 °F - 6.1 °F 88% 29.87 in 10.0 mi Calm Calm - N/A   Overcast
5:53 AM 9.0 °F - 6.1 °F 88% 29.88 in 5.0 mi Calm Calm - 0.00 in Snow Light Snow
6:10 AM 8.6 °F 2.0 °F 6.8 °F 92% 29.70 in 5.0 mi SSE 3.5 mph - 0.00 in Snow Light Snow
6:19 AM 8.6 °F 0.1 °F 6.8 °F 92% 29.70 in 5.0 mi SSE 4.6 mph - 0.00 in Snow Light Snow
6:29 AM 8.6 °F 2.0 °F 6.8 °F 92% 29.70 in 5.0 mi SSE 3.5 mph - 0.00 in Snow Light Snow
6:53 AM 9.0 °F 0.6 °F 6.1 °F 88% 29.89 in 3.0 mi South 4.6 mph - 0.00 in Snow Light Snow
7:53 AM 7.0 °F - 5.0 °F 92% 29.92 in 10.0 mi Calm Calm - 0.00 in   Mostly Cloudy
8:02 AM 6.8 °F - 5.0 °F 92% 29.73 in 9.0 mi Calm Calm - N/A   Mostly Cloudy
8:26 AM 8.6 °F - 5.0 °F 85% 29.74 in 6.0 mi Calm Calm - 0.00 in Snow Light Snow
8:53 AM 9.0 °F - 7.0 °F 92% 29.93 in 10.0 mi Calm Calm - 0.00 in   Overcast
9:53 AM 12.9 °F - 9.0 °F 84% 29.95 in 10.0 mi Calm Calm - N/A   Mostly Cloudy
10:53 AM 16.0 °F 10.4 °F 10.0 °F 77% 29.95 in 10.0 mi WSW 3.5 mph - N/A   Clear
11:53 AM 18.0 °F - 10.0 °F 71% 29.92 in 10.0 mi Calm Calm - N/A   Mostly Cloudy
12:53 PM 21.0 °F 10.6 °F 12.0 °F 68% 29.90 in 10.0 mi NNW 9.2 mph 17.3 mph N/A   Overcast
1:53 PM 19.0 °F 6.1 °F 10.9 °F 71% 29.92 in 10.0 mi NNW 12.7 mph - N/A   Overcast
2:30 PM 19.4 °F 7.2 °F 12.2 °F 74% 29.76 in 6.0 mi NNW 11.5 mph 19.6 mph 0.00 in Snow Light Snow
2:53 PM 19.0 °F 5.6 °F 12.9 °F 77% 29.96 in 4.0 mi NNW 13.8 mph 19.6 mph 0.00 in Snow Light Snow
3:00 PM 19.4 °F 5.5 °F 12.2 °F 74% 29.77 in 7.0 mi NNW 15.0 mph 19.6 mph 0.00 in Snow Light Snow
3:53 PM 18.0 °F 4.8 °F 10.9 °F 74% 29.97 in 8.0 mi North 12.7 mph 21.9 mph 0.00 in   Overcast
5:53 PM 18.0 °F 8.7 °F 10.0 °F 71% 30.01 in 10.0 mi NNW 6.9 mph - N/A   Overcast
6:53 PM 12.0 °F -2.7 °F 7.0 °F 80% 30.06 in 3.0 mi NE 12.7 mph - 0.00 in Snow Light Snow
7:53 PM 10.0 °F -4.5 °F 5.0 °F 80% 30.08 in 5.0 mi NNE 11.5 mph - 0.00 in Snow Light Snow
8:00 PM 10.4 °F -3.3 °F 5.0 °F 79% 29.87 in 5.0 mi NNE 10.4 mph - 0.00 in Snow Light Snow
8:29 PM 10.4 °F -3.3 °F 6.8 °F 85% 29.87 in 2.0 mi North 10.4 mph - 0.00 in Snow Light Snow
8:49 PM 10.4 °F -4.8 °F 5.0 °F 79% 29.88 in 3.0 mi NNE 12.7 mph - 0.00 in Snow Light Snow
8:53 PM 10.0 °F -5.2 °F 5.0 °F 80% 30.08 in 3.0 mi North 12.7 mph - 0.00 in Snow Light Snow
9:00 PM 10.4 °F -4.1 °F 5.0 °F 79% 29.88 in 4.0 mi NNE 11.5 mph - 0.00 in Snow Light Snow
9:53 PM 10.0 °F 1.8 °F 5.0 °F 80% 30.09 in 9.0 mi NNW 4.6 mph - 0.00 in   Overcast
10:53 PM 10.0 °F - 6.1 °F 84% 30.09 in 10.0 mi Calm Calm - 0.00 in   Overcast
11:53 PM 8.1 °F - 5.0 °F 87% 30.09 in 10.0 mi Calm Calm - N/A   Overcast